[[{"header":{"parameterUnit":"m.s-1","parameterCategory":2,"la1":30.2992,"la2":30.254,"lo1":-89.0895,"lo2":-89.0443,"dy":0.0025,"dx":0.0025,"nx":19,"ny":19,"refTime":"2026-04-25T09:00:00:Z","depth":"0","parameterNumber":2,"parameterNumberName":"U-component_of_CURRENTS"},"data":[0,0,0,0.0688,0.0689,0.0708,0.0708,0.0738,0.0739,0,0,0,0,0,0,0,0,0,0,0,0.0685,0.0685,0.0688,0.0689,0.0708,0.0708,0.0738,0.0739,0,0,0,0,0,0,0,0,0,0,0,0.0685,0.0685,0.0686,0.0689,0.0708,0.0708,0.0738,0.0721,0,0,0,0,0,0,0,0,0,0,0.0701,0.0707,0.0685,0.0686,0.0689,0.0708,0.0708,0.072,0.0722,0.0733,0,0.0744,0,0.0744,0.0742,0.0742,0,0,0,0.0683,0.0705,0.0704,0.0686,0.069,0.0709,0.0698,0.0721,0.0723,0.0736,0.0745,0.0746,0.0745,0.0742,0.0742,0.0943,0.0945,0,0,0.0682,0.0693,0.0702,0.0706,0.0706,0.0697,0.0699,0.0722,0.0734,0.0745,0.0746,0.0745,0.0742,0.0742,0.0941,0.0943,0,0,0,0.0683,0.0693,0.069,0.0705,0.0709,0.0698,0.07,0.0733,0.0731,0.0747,0.0746,0.0742,0.0743,0.0939,0.0942,0.1081,0,0,0,0.0682,0.0694,0.069,0.0698,0.0709,0.0723,0.071,0.0729,0.0731,0.0746,0.0742,0.0743,0.0937,0.0941,0.1073,0.1159,0,0,0,0.0682,0.0694,0.0698,0.0698,0.0708,0.0722,0.0721,0.0729,0.0731,0.0742,0.0743,0.0936,0.094,0.1065,0.1146,0.1309,0,0,0,0.069,0.0738,0.0698,0.074,0.0708,0.0752,0.0721,0.0744,0.0757,0.0742,0.0937,0.0942,0.1063,0.1138,0.13,0.1368,0.1415,0,0,0.076,0.0747,0.0767,0.0732,0.0805,0.0748,0.0857,0.0848,0.084,0.0923,0.0927,0.1075,0.1145,0.1307,0.1628,0.1668,0,0,0,0.0793,0.0828,0.0833,0.0863,0.0858,0.0948,0.091,0.0952,0.1059,0.0871,0.1129,0.117,0.1267,0.129,0.1323,0.1313,0.0963,0.0962,0.0962,0.0975,0.0943,0.1007,0.1001,0.1035,0.1086,0.1172,0.1244,0.1156,0.1263,0.1321,0.1595,0.1622,0.1648,0.1637,0.1352,0.1353,0.1353,0.1353,0.1132,0.1154,0.1157,0.1205,0.1261,0.1348,0.1466,0.1471,0.165,0.1533,0.162,0.1483,0.1692,0.1667,0.1363,0.1361,0.136,0.1359,0.1359,0.1262,0.1255,0.1279,0.1342,0.1473,0.1518,0.1704,0.1765,0.1821,0.1916,0.1946,0.1942,0.1889,0.1953,0.1955,0.1956,0.1957,0.1958,0.1958,0.1347,0.1365,0.1413,0.1475,0.1529,0.1654,0.1847,0.1972,0.214,0.2151,0.2151,0.2015,0.1779,0.1719,0.1976,0.1973,0.1971,0.1969,0.1968,0.1443,0.1429,0.149,0.1537,0.1651,0.1737,0.1927,0.2207,0.2389,0.2499,0.2424,0.2287,0.2262,0.2233,0.2186,0.2549,0.2549,0.2549,0.2549,0.1493,0.1493,0.1537,0.1599,0.1698,0.1781,0.1957,0.2191,0.2494,0.2611,0.2658,0.2508,0.2484,0.246,0.2427,0.2378,0.2782,0.2782,0.2783,0.1552,0.1535,0.1575,0.1596,0.1697,0.1782,0.1856,0.2008,0.2497,0.2786,0.2646,0.2636,0.2397,0.236,0.2291,0.2245,0.2151,0,0]},{"header":{"parameterUnit":"m.s-1","parameterCategory":2,"la1":30.2992,"la2":30.254,"lo1":-89.0895,"lo2":-89.0443,"dy":0.0025,"dx":0.0025,"nx":19,"ny":19,"refTime":"2026-04-25T09:00:00:Z","depth":"0","parameterNumber":3,"parameterNumberName":"V-component_of_CURRENTS"},"data":[0,0,0,0.0022,0.0022,-0.0018,-0.0018,-0.006,-0.006,0,0,0,0,0,0,0,0,0,0,0,0.0035,0.0035,0.0022,0.0022,-0.0018,-0.0018,-0.006,-0.006,0,0,0,0,0,0,0,0,0,0,0,0.0035,0.0035,0.0035,0.0021,-0.0018,-0.0018,-0.006,-0.0034,0,0,0,0,0,0,0,0,0,0,0.0003,0.0017,0.0035,0.0035,0.0021,-0.0018,-0.0018,-0.0033,-0.0035,-0.0038,0,-0.0042,0,-0.0049,-0.0062,-0.0063,0,0,0,0.0016,0.002,0.0008,0.0035,0.0021,-0.0018,-0.0002,-0.0034,-0.0037,-0.0041,-0.0043,-0.0044,-0.005,-0.0063,-0.0063,0.005,0.0051,0,0,0.0018,0.0027,0.0011,0.0007,0.0014,-0.0,-0.0003,-0.0036,-0.0038,-0.0043,-0.0045,-0.005,-0.0063,-0.0063,0.0048,0.005,0,0,0,0.0028,0.0029,0.0018,0.0008,0.0002,-0.0001,-0.0004,-0.0036,-0.004,-0.0046,-0.0051,-0.0063,-0.0063,0.0047,0.0049,0.0141,0,0,0,0.0029,0.0035,0.0019,0.0024,0.0003,-0.0018,-0.0003,-0.0038,-0.0042,-0.0051,-0.0063,-0.0064,0.0045,0.0048,0.0135,0.0222,0,0,0,0.0036,0.0036,0.0032,0.0025,0.001,-0.0018,-0.0024,-0.0039,-0.0044,-0.0063,-0.0064,0.0044,0.0047,0.013,0.0211,0.033,0,0,0,0.0046,0.0054,0.0032,0.0029,0.0011,0.0003,-0.0024,-0.0056,-0.0075,-0.0063,0.0045,0.0049,0.0128,0.0205,0.0323,0.0377,0.0414,0,0,0.0066,0.0057,0.0052,0.0031,0.0054,0.0008,0.0065,0.0013,-0.0007,0.0051,0.0054,0.0137,0.0211,0.0328,0.0579,0.0609,0,0,0,0.0063,0.0089,0.0076,0.0088,0.0055,0.0119,0.0064,0.008,0.0134,0.0002,0.0183,0.0228,0.0298,0.0317,0.0343,0.0236,0.0065,0.0065,0.0064,0.0228,0.0181,0.0219,0.0198,0.0194,0.0194,0.0245,0.0287,0.0201,0.0266,0.0334,0.0537,0.0559,0.0579,0.0468,0.0347,0.0347,0.0347,0.0348,0.0358,0.0376,0.0372,0.0384,0.0409,0.0456,0.0497,0.0469,0.0589,0.0488,0.0549,0.0454,0.0612,0.0484,0.0354,0.0353,0.0352,0.0352,0.0351,0.0486,0.0476,0.0487,0.0527,0.0629,0.0632,0.0767,0.0751,0.0733,0.079,0.081,0.0807,0.0669,0.0806,0.0807,0.0808,0.0809,0.0809,0.081,0.0574,0.0581,0.0612,0.0665,0.0726,0.0827,0.0918,0.0983,0.1022,0.0975,0.0974,0.0753,0.0679,0.0631,0.0824,0.0822,0.082,0.0819,0.0818,0.0637,0.0605,0.068,0.0729,0.0879,0.1034,0.1102,0.1249,0.1304,0.1343,0.106,0.1074,0.1064,0.1042,0.1006,0.1285,0.1285,0.1285,0.1285,0.0663,0.0654,0.0751,0.0857,0.1002,0.1136,0.1354,0.1449,0.1367,0.1285,0.1192,0.1051,0.1037,0.1015,0.0994,0.0951,0.1211,0.121,0.121,0.0696,0.0726,0.0827,0.0914,0.1074,0.1254,0.1475,0.1598,0.1406,0.1191,0.1041,0.1044,0.0811,0.0797,0.0731,0.071,0.0628,0,0]}],[{"header":{"parameterUnit":"m.s-1","parameterCategory":2,"la1":30.2992,"la2":30.254,"lo1":-89.0895,"lo2":-89.0443,"dy":0.0025,"dx":0.0025,"nx":19,"ny":19,"refTime":"2026-04-25T09:00:00:Z","depth":"2","parameterNumber":2,"parameterNumberName":"U-component_of_CURRENTS"},"data":[0,0,0,0.0613,0.0614,0.0639,0.0639,0.0667,0.0668,0,0,0,0,0,0,0,0,0,0,0,0.0608,0.0608,0.0613,0.0614,0.0639,0.0639,0.0667,0.0668,0,0,0,0,0,0,0,0,0,0,0,0.0607,0.0608,0.0608,0.0614,0.0639,0.0639,0.0667,0.0647,0,0,0,0,0,0,0,0,0,0,0.0623,0.0627,0.0608,0.0608,0.0615,0.0639,0.0639,0.0646,0.0649,0.0657,0,0.067,0,0.0672,0.067,0.067,0,0,0,0.0607,0.0626,0.0627,0.0609,0.0615,0.0639,0.0626,0.0648,0.065,0.066,0.067,0.0671,0.0672,0.067,0.067,0.0854,0.0856,0,0,0.0605,0.0615,0.0625,0.0629,0.0634,0.0625,0.0627,0.0649,0.066,0.067,0.0672,0.0673,0.067,0.0671,0.0853,0.0855,0,0,0,0.0606,0.0614,0.0615,0.0628,0.0634,0.0626,0.0628,0.0659,0.0658,0.0672,0.0673,0.0671,0.0671,0.0851,0.0854,0.1001,0,0,0,0.0605,0.0615,0.0615,0.0621,0.0634,0.065,0.0638,0.0657,0.0659,0.0673,0.0671,0.0671,0.0849,0.0852,0.0993,0.1062,0,0,0,0.0604,0.0615,0.062,0.0621,0.0635,0.0649,0.065,0.0657,0.066,0.067,0.0672,0.0848,0.0852,0.0986,0.1049,0.1162,0,0,0,0.0608,0.0653,0.0621,0.0661,0.0634,0.0678,0.0649,0.0673,0.0685,0.0671,0.0849,0.0853,0.0983,0.1042,0.1154,0.0943,0.0963,0,0,0.067,0.066,0.068,0.0652,0.0726,0.0673,0.0781,0.0774,0.0761,0.0835,0.0839,0.0996,0.1049,0.1161,0.1183,0.1195,0,0,0,0.0701,0.0733,0.074,0.0775,0.0777,0.0859,0.0833,0.0875,0.0977,0.079,0.1039,0.1069,0.1134,0.0991,0.1003,0.0873,0.0873,0.0872,0.0872,0.0837,0.0826,0.0889,0.0902,0.0942,0.0993,0.1069,0.1139,0.1071,0.1174,0.1221,0.1452,0.1303,0.1309,0.1254,0.1255,0.1256,0.1256,0.1256,0.0971,0.0983,0.1024,0.1084,0.1145,0.1236,0.1351,0.1359,0.1515,0.1429,0.1485,0.1193,0.1329,0.1269,0.1267,0.1265,0.1264,0.1263,0.1262,0.1048,0.104,0.1101,0.1196,0.1329,0.1388,0.1533,0.1614,0.1671,0.1745,0.1565,0.1558,0.1521,0.1768,0.1769,0.1769,0.177,0.1771,0.1771,0.1058,0.1116,0.1158,0.1277,0.1353,0.1477,0.1644,0.1723,0.177,0.1728,0.1726,0.1624,0.1607,0.1552,0.1785,0.1782,0.178,0.1779,0.1778,0.105,0.1036,0.1127,0.1198,0.1373,0.1428,0.1609,0.1688,0.1807,0.1807,0.1712,0.1709,0.164,0.1625,0.1571,0.1795,0.1795,0.1795,0.1795,0.0966,0.0985,0.1031,0.1146,0.1282,0.1393,0.1392,0.1418,0.152,0.1443,0.1458,0.1265,0.1271,0.117,0.1166,0.1097,0.1199,0.1198,0.1197,0.0895,0.0919,0.0924,0.1045,0.1216,0.1279,0.1177,0.1153,0.1126,0.1175,0.1362,0.1754,0.15,0.1499,0.1359,0.1347,0.1243,0,0]},{"header":{"parameterUnit":"m.s-1","parameterCategory":2,"la1":30.2992,"la2":30.254,"lo1":-89.0895,"lo2":-89.0443,"dy":0.0025,"dx":0.0025,"nx":19,"ny":19,"refTime":"2026-04-25T09:00:00:Z","depth":"2","parameterNumber":3,"parameterNumberName":"V-component_of_CURRENTS"},"data":[0,0,0,-0.0077,-0.0077,-0.0109,-0.011,-0.0152,-0.0152,0,0,0,0,0,0,0,0,0,0,0,-0.0066,-0.0067,-0.0077,-0.0077,-0.0109,-0.011,-0.0152,-0.0152,0,0,0,0,0,0,0,0,0,0,0,-0.0066,-0.0067,-0.0067,-0.0077,-0.0109,-0.011,-0.0152,-0.0128,0,0,0,0,0,0,0,0,0,0,-0.0098,-0.0086,-0.0067,-0.0067,-0.0077,-0.0109,-0.011,-0.0127,-0.013,-0.0136,0,-0.0138,0,-0.0143,-0.0154,-0.0155,0,0,0,-0.0083,-0.0083,-0.0091,-0.0067,-0.0078,-0.0109,-0.0096,-0.0129,-0.0132,-0.0139,-0.0139,-0.014,-0.0144,-0.0155,-0.0155,-0.0076,-0.0075,0,0,-0.0081,-0.0074,-0.0089,-0.0093,-0.0083,-0.0095,-0.0097,-0.0131,-0.0133,-0.0139,-0.0141,-0.0145,-0.0155,-0.0155,-0.0077,-0.0076,0,0,0,-0.0072,-0.0073,-0.008,-0.0091,-0.0096,-0.0096,-0.0099,-0.0131,-0.0133,-0.0142,-0.0145,-0.0155,-0.0156,-0.0078,-0.0076,0.0013,0,0,0,-0.0071,-0.0068,-0.0079,-0.0076,-0.0095,-0.0113,-0.0098,-0.0131,-0.0135,-0.0145,-0.0155,-0.0156,-0.0079,-0.0077,0.0008,0.0056,0,0,0,-0.0066,-0.0067,-0.007,-0.0076,-0.0087,-0.0113,-0.0117,-0.0132,-0.0137,-0.0155,-0.0156,-0.008,-0.0078,0.0003,0.0048,0.0071,0,0,0,-0.006,-0.0056,-0.0069,-0.0074,-0.0087,-0.0096,-0.0117,-0.0146,-0.0164,-0.0155,-0.0079,-0.0077,0.0002,0.0043,0.0067,-0.012,-0.0116,0,0,-0.005,-0.0055,-0.0059,-0.0072,-0.0055,-0.0092,-0.0052,-0.0097,-0.0113,-0.0073,-0.0071,0.001,0.0047,0.007,0.0035,0.0034,0,0,0,-0.0054,-0.0036,-0.0046,-0.0035,-0.0058,-0.0017,-0.0056,-0.0044,0.0,-0.0108,0.0039,0.0061,0.0071,-0.0049,-0.0048,-0.0064,-0.0064,-0.0064,-0.0065,0.0045,0.0022,0.0047,0.0041,0.0041,0.0036,0.0066,0.0097,0.005,0.0106,0.0155,0.0267,0.0142,0.014,0.0175,0.0176,0.0176,0.0176,0.0176,0.0127,0.0129,0.0152,0.0166,0.0188,0.0229,0.0254,0.024,0.0314,0.0276,0.028,0.0079,0.0145,0.0184,0.0183,0.0182,0.0181,0.018,0.018,0.0178,0.017,0.0203,0.0256,0.034,0.0355,0.0423,0.0443,0.0417,0.0441,0.0267,0.0262,0.0291,0.0431,0.0432,0.0432,0.0433,0.0433,0.0433,0.0191,0.0222,0.022,0.0315,0.0391,0.0474,0.0524,0.0527,0.0446,0.0362,0.0359,0.0352,0.0344,0.0306,0.0438,0.0437,0.0437,0.0436,0.0436,0.0163,0.0101,0.0171,0.0226,0.0394,0.0509,0.0555,0.0474,0.0448,0.0369,0.0291,0.0293,0.0237,0.0233,0.0193,0.0288,0.0288,0.0288,0.0288,0.0049,0.005,0.007,0.0183,0.033,0.0491,0.0513,0.0432,0.0297,0.0162,0.0168,0.0074,0.008,0.0012,0.0013,-0.0034,0.0003,0.0003,0.0003,-0.0049,-0.0004,-0.0,0.011,0.0305,0.0446,0.0512,0.0495,0.0191,0.0003,0.0227,0.0248,0.0119,0.0126,0.0024,0.0024,-0.005,0,0]}],[{"header":{"parameterUnit":"m.s-1","parameterCategory":2,"la1":30.2992,"la2":30.254,"lo1":-89.0895,"lo2":-89.0443,"dy":0.0025,"dx":0.0025,"nx":19,"ny":19,"refTime":"2026-04-25T09:00:00:Z","depth":"4","parameterNumber":2,"parameterNumberName":"U-component_of_CURRENTS"},"data":[0,0,0,0.0263,0.0263,0.029,0.029,0.0268,0.0268,0,0,0,0,0,0,0,0,0,0,0,0.0257,0.0258,0.0263,0.0263,0.029,0.029,0.0268,0.0268,0,0,0,0,0,0,0,0,0,0,0,0.0257,0.0258,0.0258,0.0264,0.029,0.029,0.0268,0.026,0,0,0,0,0,0,0,0,0,0,0.0241,0.0237,0.0258,0.0258,0.0264,0.029,0.029,0.026,0.0261,0.0243,0,0.0258,0,0.0263,0.0266,0.0265,0,0,0,0.0256,0.0237,0.0255,0.0258,0.0264,0.029,0.0276,0.0261,0.0261,0.0243,0.0258,0.0257,0.0262,0.0265,0.0265,0.0305,0.0306,0,0,0.0255,0.0247,0.0255,0.0255,0.0284,0.0275,0.0277,0.0262,0.026,0.0258,0.0257,0.0262,0.0265,0.0265,0.0304,0.0305,0,0,0,0.0255,0.0246,0.0265,0.0256,0.0266,0.0276,0.0278,0.026,0.027,0.0257,0.0262,0.0265,0.0265,0.0304,0.0305,0.0341,0,0,0,0.0254,0.0248,0.0265,0.0258,0.0267,0.0268,0.0277,0.0271,0.027,0.0262,0.0265,0.0264,0.0303,0.0304,0.0339,0.0327,0,0,0,0.0254,0.0247,0.0257,0.0259,0.0274,0.0269,0.0278,0.0271,0.0273,0.0265,0.0264,0.0303,0.0304,0.0336,0.0324,0.0276,0,0,0,0.0235,0.0219,0.0257,0.0246,0.0274,0.0286,0.0278,0.0269,0.0262,0.0265,0.0303,0.0305,0.0336,0.0322,0.0276,0.0239,0,0,0,0.0194,0.0214,0.0208,0.0243,0.0245,0.0281,0.0304,0.0286,0.0285,0.0301,0.0302,0.034,0.0324,0.0276,0.0334,0,0,0,0,0.0182,0.0187,0.0187,0.0213,0.0237,0.0288,0.0303,0.0305,0.0333,0.0292,0.0362,0.035,0.0318,0.0298,0.0312,0.0312,0.0312,0.0312,0.0312,0.0048,0.0115,0.0115,0.0203,0.0231,0.0296,0.0317,0.0344,0.0351,0.0379,0.0398,0.0409,0.0396,0.0432,0.0433,0.0433,0.0433,0.0433,0.0433,-0.0047,-0.0013,0.0079,0.0121,0.0226,0.0281,0.0352,0.0381,0.0412,0.0437,0.0405,0.0363,0.0437,0.0437,0.0436,0.0436,0.0435,0.0435,0.0435,-0.0124,-0.0077,-0.0038,0.0039,0.0131,0.025,0.0273,0.0364,0.0414,0.0427,0.0374,0.0407,0.0378,0.0418,0.0417,0.0417,0.0417,0.0417,0.0417,-0.0202,-0.0152,-0.0123,-0.0049,0.0001,0.0078,0.0218,0.0254,0.0352,0.0389,0.0432,0.0402,0.0403,0.0376,0.0413,0.0414,0.0414,0.0415,0.0415,-0.0221,-0.0211,-0.02,-0.0172,-0.0108,-0.0073,0.0025,0.0185,0.0198,0.0248,0.0343,0.0348,0.0308,0.031,0.0279,0.0288,0.0288,0.0287,0,-0.0243,-0.0236,-0.0216,-0.0214,-0.0202,-0.0138,-0.008,0.0015,0.0169,0.0182,0.0174,0.0275,0.0282,0.0231,0.0232,0.0191,0,0,0,-0.0265,-0.0251,-0.0237,-0.0213,-0.0198,-0.0108,-0.0043,0.0031,0.0122,0.0202,0.0277,0.028,0.0304,0.0403,0.0352,0.0353,0.0306,0,0]},{"header":{"parameterUnit":"m.s-1","parameterCategory":2,"la1":30.2992,"la2":30.254,"lo1":-89.0895,"lo2":-89.0443,"dy":0.0025,"dx":0.0025,"nx":19,"ny":19,"refTime":"2026-04-25T09:00:00:Z","depth":"4","parameterNumber":3,"parameterNumberName":"V-component_of_CURRENTS"},"data":[0,0,0,-0.0169,-0.0169,-0.0172,-0.0172,-0.0164,-0.0164,0,0,0,0,0,0,0,0,0,0,0,-0.017,-0.017,-0.0169,-0.0169,-0.0172,-0.0172,-0.0164,-0.0164,0,0,0,0,0,0,0,0,0,0,0,-0.017,-0.017,-0.0171,-0.0169,-0.0172,-0.0172,-0.0164,-0.0164,0,0,0,0,0,0,0,0,0,0,-0.0162,-0.0176,-0.017,-0.0171,-0.017,-0.0172,-0.0172,-0.0164,-0.0164,-0.016,0,-0.0166,0,-0.0165,-0.0163,-0.0163,0,0,0,-0.0166,-0.0177,-0.0168,-0.0171,-0.017,-0.0172,-0.017,-0.0164,-0.0164,-0.016,-0.0166,-0.0165,-0.0165,-0.0163,-0.0163,-0.0195,-0.0196,0,0,-0.0165,-0.0178,-0.0168,-0.0168,-0.0177,-0.017,-0.017,-0.0164,-0.0172,-0.0166,-0.0165,-0.0165,-0.0163,-0.0163,-0.0195,-0.0195,0,0,0,-0.0168,-0.0178,-0.017,-0.0168,-0.017,-0.017,-0.017,-0.0172,-0.0167,-0.0165,-0.0165,-0.0163,-0.0163,-0.0194,-0.0195,-0.0259,0,0,0,-0.0167,-0.018,-0.017,-0.0179,-0.017,-0.0176,-0.0179,-0.0168,-0.0167,-0.0165,-0.0163,-0.0163,-0.0194,-0.0195,-0.0256,-0.0294,0,0,0,-0.0169,-0.018,-0.018,-0.0179,-0.0181,-0.0176,-0.017,-0.0167,-0.0167,-0.0163,-0.0163,-0.0194,-0.0194,-0.0254,-0.0289,-0.0306,0,0,0,-0.0181,-0.0192,-0.0181,-0.0176,-0.0181,-0.0175,-0.017,-0.0154,-0.0147,-0.0163,-0.0194,-0.0195,-0.0253,-0.0286,-0.0304,-0.011,0,0,0,-0.0198,-0.0195,-0.0184,-0.0173,-0.0186,-0.0174,-0.0207,-0.0187,-0.0167,-0.0193,-0.0194,-0.0257,-0.0289,-0.0306,-0.0168,0,0,0,0,-0.0189,-0.021,-0.0196,-0.0207,-0.0183,-0.0221,-0.0212,-0.022,-0.0242,-0.0171,-0.0259,-0.0277,-0.0285,-0.0165,-0.02,-0.0199,-0.0199,-0.0199,-0.0199,-0.03,-0.0265,-0.0283,-0.0268,-0.0265,-0.0263,-0.0278,-0.0301,-0.0273,-0.0298,-0.033,-0.039,-0.0265,-0.0324,-0.0325,-0.0325,-0.0325,-0.0326,-0.0326,-0.036,-0.0333,-0.0367,-0.0383,-0.0397,-0.044,-0.0416,-0.04,-0.0434,-0.0408,-0.0411,-0.0242,-0.0332,-0.0331,-0.033,-0.0329,-0.0329,-0.0328,-0.0328,-0.0383,-0.0355,-0.0421,-0.0437,-0.0523,-0.052,-0.0492,-0.0492,-0.0505,-0.0508,-0.0354,-0.0431,-0.0423,-0.0502,-0.0503,-0.0503,-0.0503,-0.0503,-0.0504,-0.0325,-0.0379,-0.0375,-0.0449,-0.0469,-0.0494,-0.0518,-0.0479,-0.0485,-0.0414,-0.0526,-0.0449,-0.0443,-0.0433,-0.0508,-0.0507,-0.0506,-0.0506,-0.0506,-0.0235,-0.0238,-0.0221,-0.0235,-0.0265,-0.0292,-0.036,-0.0344,-0.0316,-0.028,-0.0346,-0.0353,-0.0309,-0.0307,-0.029,-0.0326,-0.0323,-0.0321,0,-0.0134,-0.0137,-0.0083,-0.0041,-0.0005,-0.0132,-0.0047,-0.0089,-0.0173,-0.0179,-0.0295,-0.0371,-0.0374,-0.0323,-0.0318,-0.0296,0,0,0,-0.006,-0.0053,0.0002,0.0035,0.0083,0.0058,-0.0039,-0.0033,-0.0187,-0.0103,-0.0266,-0.028,-0.0304,-0.0519,-0.0469,-0.0462,-0.0443,0,0]}]]